Flag for Germany Weather past 2 weeks in Siegburg, North Rhine-Westphalia, Germany

Now
71 °F

Partly sunny.


Feels Like: 75 °F
Forecast: 59 / 80 °F
Wind: 1 mph from East

Location: Bonn-Hangelar

Current Time: Jul 31, 2014 at 9:46:14 PM

Latest Report: Jul 31, 2014 at 9:00 PM


Visibility: 25 mi

Pressure: 29.92 "Hg

Humidity: 63%

Dew point: 57 °F

Location of SiegburgLocation

Historic Weather in Siegburg — Graph

°F

Siegburg temperature yesterday

Maximum temperature yesterday: 70 °F (at 3:00 PM)
Minimum temperature yesterday: 61 °F (at 11:00 PM)
Average temperature yesterday: 65 °F

Past Weeks' High & Low Weather Summary

 TemperatureHumidityPressure
High93 °F (Jul 19, 5:00 PM)100% (Jul 22, 10:00 AM)30.18 "Hg (Jul 22, 10:00 AM)
Low53 °F (Jul 31, 6:00 AM)23% (Jul 19, 3:00 PM)29.78 "Hg (Jul 20, 4:00 AM)
Average69 °F75%29.95 "Hg
* Reported Jul 16 8:00 PM — Jul 31 8:00 PM, Siegburg, Weather by CustomWeather, © 2014

Note: Actual official high and low records may vary slightly from our data, if they occured in-between our weather recording intervals... More about our weather records

Advertising

Siegburg weather history for previous 24 hours

 ConditionsComfort  
Time TempWeatherWind HumidityBarometerVisibility
8:00 PM
Jul 31
75 °FScattered clouds.1 mph45%29.91 "Hg25 mi
7:00 PM75 °FScattered clouds.2 mph46%29.91 "Hg25 mi
6:00 PM76 °FScattered clouds.3 mph47%29.92 "Hg22 mi
5:00 PM76 °FScattered clouds.3 mph45%29.93 "Hg25 mi
4:00 PM75 °FScattered clouds.3 mph55%29.95 "Hg25 mi
3:00 PM74 °FPassing clouds.1 mph55%29.96 "Hg25 mi
2:00 PM71 °FPassing clouds.2 mph58%29.98 "Hg25 mi
1:00 PM70 °FPassing clouds.1 mph61%29.99 "Hg25 mi
12:00 PM68 °FPassing clouds.2 mph62%30.01 "Hg19 mi
11:00 AM65 °FPassing clouds.1 mph68%30.02 "Hg19 mi
10:00 AM63 °FPassing clouds.1 mph70%30.02 "Hg19 mi
9:00 AM60 °FSunny.1 mph80%30.03 "Hg12 mi
8:00 AM58 °FSunny.1 mph86%30.03 "Hg12 mi
7:00 AM54 °FSunny.2 mph94%30.03 "Hg9 mi
6:00 AM53 °FPassing clouds.2 mph91%30.02 "Hg19 mi
5:00 AM54 °FClear.2 mph91%30.03 "Hg9 mi
4:00 AM54 °FClear.2 mph92%30.03 "Hg9 mi
3:00 AM55 °FClear.2 mph91%30.03 "Hg8 mi
2:00 AM57 °FClear.2 mph89%30.02 "Hg10 mi
1:00 AM59 °FPassing clouds.3 mph89%30.01 "Hg9 mi
12:00 AM60 °FPassing clouds.2 mph88%30.01 "Hg11 mi
11:00 PM
Jul 30
61 °FPassing clouds.2 mph87%30.01 "Hg10 mi
10:00 PM62 °FPassing clouds.3 mph81%29.99 "Hg11 mi
9:00 PM66 °FPartly sunny.3 mph77%29.96 "Hg25 mi
Weather by CustomWeather, © 2014

See weather overviewHow to use our weather pages